Rocky Mount, NC

6:36 PM EDT on May 25, 2017 (GMT -0400)
Rocky Mount-Wilson Regional

Weather History for KRWI - November, 2013

Change the Weather History Date:

Sunday, November 24, 2013

  Actual Average Record
Temperature  
Mean Temperature 34 °F -  
Max Temperature 43 °F 62 °F 80 °F (1973)
Min Temperature 24 °F 37 °F 18 °F (1970)
Degree Days  
Heating Degree Days 32    
Moisture  
Dew Point 9 °F    
Average Humidity 38    
Maximum Humidity 57    
Minimum Humidity 23    
Precipitation  
Precipitation 0.00 in - - ()
Sea Level Pressure  
Sea Level Pressure 30.41 in    
Wind  
Wind Speed 12 mph (NNW)    
Max Wind Speed 17 mph    
Max Gust Speed 26 mph    
Visibility 10 miles    
Events      
Averages and records for this station are not official NWS values.
T = Trace of Precipitation, MM = Missing Value Source: NWS Daily Summary

Daily Weather History Graph

Daily Weather History Graph

Search for Another Location

Airport or City:

Trip Planner

Search our weather history database for the weather conditions in past years. The results will help you decide how hot, cold, wet, or windy it might be!

Date:

Astronomy

Nov. 24, 2013 Rise Set
Actual Time 6:56 AM EST 4:59 PM EST
Civil Twilight 6:29 AM EST 5:27 PM EST
Nautical Twilight 5:57 AM EST 5:58 PM EST
Astronomical Twilight 5:27 AM EST 6:29 PM EST
Moon 11:17 PM EST (11/24) 11:49 AM EST (11/24)
Length of Visible Light 10h 58m
Length of Day
10h 02m
Waning Gibbous, 61% of the Moon is Illuminated
Nov 24
Waning Gibbous
Nov 25
Last Quarter
Dec 2
New
Dec 9
First Quarter
Dec 17
Full

Hourly Weather History & Observations

Time (EST) Temp. Windchill Dew Point Humidity Pressure Visibility Wind Dir Wind Speed Gust Speed Precip Events Conditions
12:53 AM 43.0 °F 37.2 °F 19.9 °F 40% 30.17 in 10.0 mi NW 10.4 mph 20.7 mph N/A   Clear
1:53 AM 42.1 °F 34.5 °F 19.0 °F 40% 30.20 in 10.0 mi NW 15.0 mph - N/A   Clear
2:53 AM 39.9 °F 31.4 °F 16.0 °F 38% 30.21 in 10.0 mi NNW 16.1 mph 26.5 mph N/A   Clear
3:53 AM 37.0 °F 28.9 °F 15.1 °F 41% 30.23 in 10.0 mi NW 12.7 mph - N/A   Clear
4:53 AM 35.1 °F 25.2 °F 15.1 °F 44% 30.27 in 10.0 mi NW 16.1 mph - N/A   Clear
5:53 AM 34.0 °F 24.6 °F 14.0 °F 44% 30.31 in 10.0 mi NNW 13.8 mph - N/A   Clear
6:53 AM 32.0 °F 22.5 °F 9.0 °F 38% 30.35 in 10.0 mi NNW 12.7 mph - N/A   Clear
7:53 AM 32.0 °F 21.6 °F 9.0 °F 38% 30.40 in 10.0 mi NNW 15.0 mph 21.9 mph N/A   Clear
8:53 AM 33.1 °F 22.6 °F 6.1 °F 32% 30.42 in 10.0 mi North 16.1 mph 26.5 mph N/A   Clear
9:53 AM 35.1 °F 24.8 °F 5.0 °F 28% 30.44 in 10.0 mi North 17.3 mph - N/A   Clear
10:53 AM 36.0 °F 26.3 °F 3.9 °F 26% 30.46 in 10.0 mi NW 16.1 mph 25.3 mph N/A   Clear
11:53 AM 37.0 °F 28.1 °F 3.9 °F 25% 30.44 in 10.0 mi NNW 15.0 mph 26.5 mph N/A   Clear
12:53 PM 37.9 °F 28.9 °F 6.1 °F 27% 30.42 in 10.0 mi NW 16.1 mph 23.0 mph N/A   Clear
1:53 PM 39.0 °F 30.6 °F 3.9 °F 23% 30.42 in 10.0 mi NW 15.0 mph 24.2 mph N/A   Clear
2:53 PM 37.9 °F 30.0 °F 3.0 °F 23% 30.43 in 10.0 mi NW 12.7 mph 16.1 mph N/A   Clear
3:53 PM 37.0 °F 28.5 °F 3.0 °F 24% 30.44 in 10.0 mi NNW 13.8 mph - N/A   Clear
4:53 PM 34.0 °F 28.0 °F 3.9 °F 28% 30.46 in 10.0 mi NNW 6.9 mph - N/A   Clear
5:53 PM 32.0 °F 24.2 °F 6.1 °F 34% 30.47 in 10.0 mi NNW 9.2 mph - N/A   Clear
6:53 PM 28.0 °F - 10.0 °F 47% 30.50 in 10.0 mi Calm Calm - N/A   Clear
7:53 PM 27.0 °F 23.0 °F 10.0 °F 49% 30.52 in 10.0 mi NE 3.5 mph - N/A   Clear
8:53 PM 24.1 °F 16.0 °F 10.9 °F 57% 30.53 in 10.0 mi NNE 6.9 mph - N/A   Clear
9:53 PM 25.0 °F 19.3 °F 9.0 °F 51% 30.54 in 10.0 mi NNE 4.6 mph - N/A   Clear
10:53 PM 24.1 °F - 10.0 °F 55% 30.55 in 10.0 mi Calm Calm - N/A   Clear
11:53 PM 24.1 °F - 10.0 °F 55% 30.56 in 10.0 mi Calm Calm - N/A   Clear